Location: Christianberg
(48.9086°N, 14.0209°E)
Time: 19:27:52
(UTC+00:00)

Cosmos 841 Rocket - Pass Details

Date: 20 June 2021
Orbit: 747 x 772 km, 74.0° (Epoch: 03 August)

Event Time Altitude Azimuth Distance (km) Brightness Sun altitude
Exits shadow 00:22:53 24° 183° (S) 1,507 4.4 -15.6°
Maximum altitude 00:25:53 64° 109° (ESE) 832 3.6 -15.5°
Drops below altitude 10° 00:30:59 10° 29° (NNE) 2,275 7.3 -15.2°
Sets 00:33:21 0° 26° (NNE) 3,203 8.6 -15.0°
